Location: Bay Shore Mobile Home Park
(38.5762°N, 75.0841°W)
Time: 00:48:18
(UTC+00:00)

Tiangong - Visible Passes

Search period start: 22 January 2026 00:00
Search period end: 01 February 2026 00:00
Orbit: 378 x 392 km, 41.5° (Epoch: 21 January)

Date Brightness Start Highest point End Pass type
(mag) Time Alt. Az. Time Alt. Az. Time Alt. Az.
22 Jan -1.9 10:40:03 54° NNW 10:40:10 54° N 10:43:19 10° ENE visible
23 Jan 1.2 09:43:21 13° ENE 09:43:21 13° ENE 09:43:43 10° ENE visible
23 Jan -1.6 11:15:34 19° WNW 11:17:36 47° N 11:20:42 10° E visible
24 Jan -0.8 10:18:46 35° NE 10:18:46 35° NE 10:20:58 10° ENE visible
25 Jan -1.8 10:54:05 34° NW 10:55:10 54° N 10:58:18 10° E visible
26 Jan 0.4 09:57:09 21° ENE 09:57:09 21° ENE 09:58:24 10° E visible
26 Jan -2.1 11:29:21 12° WNW 11:32:17 78° SSW 11:35:27 10° ESE visible
27 Jan -2.2 10:32:22 71° N 10:32:27 72° NNE 10:35:37 10° E visible
28 Jan 1.4 09:35:22 12° E 09:35:22 12° E 09:35:37 10° E visible
28 Jan -1.6 11:07:34 21° W 11:09:19 46° SSW 11:12:22 10° SE visible
29 Jan -0.7 10:10:32 36° ESE 10:10:32 36° ESE 10:12:34 10° ESE visible
30 Jan -0.9 10:45:43 26° SW 10:46:02 27° SSW 10:48:46 10° SSE visible
31 Jan 1.0 09:48:42 13° SE 09:48:42 13° SE 09:49:06 10° SE visible
